Idaho Cnty AP, Grangeville, I, ID

3:09 PM PST on December 11, 2017 (GMT -0800)
Idaho Cnty AP, Grangeville, I

Weather History for KGIC - August, 2014

Change the Weather History Date:

Tuesday, August 12, 2014

  Actual Average (KP69) Record (KP69)
Temperature  
Mean Temperature 76 °F -  
Max Temperature 90 °F 88 °F 102 °F (2015)
Min Temperature 62 °F 53 °F 48 °F (2002)
Cooling Degree Days 12    
Growing Degree Days 26 (Base 50)    
Moisture  
Dew Point 48 °F    
Average Humidity 40    
Maximum Humidity 68    
Minimum Humidity 22    
Precipitation  
Precipitation 0.00 in - - ()
Sea Level Pressure  
Sea Level Pressure 30.01 in    
Wind  
Wind Speed 5 mph (SE)    
Max Wind Speed 34 mph    
Max Gust Speed 44 mph    
Visibility 9 miles    
Events      
Averages and records for this station are not official NWS values.
T = Trace of Precipitation, MM = Missing Value Source: NWS Daily Summary

Daily Weather History Graph

Daily Weather History Graph

Search for Another Location

Airport or City:

Trip Planner

Search our weather history database for the weather conditions in past years. The results will help you decide how hot, cold, wet, or windy it might be!

Date:

Astronomy

Aug. 12, 2014 Rise Set
Actual Time 5:40 AM PDT 7:57 PM PDT
Civil Twilight 5:07 AM PDT 8:30 PM PDT
Nautical Twilight 4:26 AM PDT 9:11 PM PDT
Astronomical Twilight 3:40 AM PDT 9:57 PM PDT
Moon 8:55 PM PDT (8/12) 8:13 AM PDT (8/12)
Length of Visible Light 15h 22m
Length of Day
14h 17m
Waning Gibbous, 94% of the Moon is Illuminated
Aug 12
Waning Gibbous
Aug 17
Last Quarter
Aug 25
New
Sep 2
First Quarter
Sep 8
Full

Hourly Weather History & Observations

Time (PDT) Temp. Dew Point Humidity Pressure Visibility Wind Dir Wind Speed Gust Speed Precip Events Conditions
1:15 AM 73.0 °F 43.3 °F 34% 30.04 in 10.0 mi SE 3.5 mph - N/A   Clear
1:35 AM 72.3 °F 43.0 °F 35% 30.04 in 10.0 mi SW 4.6 mph - N/A   Clear
1:55 AM 70.5 °F 42.8 °F 37% 30.04 in 10.0 mi South 3.5 mph - N/A   Clear
2:15 AM 70.9 °F 43.2 °F 37% 30.04 in 10.0 mi SSW 4.6 mph - N/A   Clear
2:35 AM 72.9 °F 44.1 °F 36% 30.04 in 10.0 mi Calm Calm - N/A   Clear
2:55 AM 72.5 °F 44.1 °F 36% 30.03 in 10.0 mi Calm Calm - N/A   Clear
3:15 AM 70.5 °F 44.8 °F 40% 30.03 in 10.0 mi Calm Calm - N/A   Clear
3:35 AM 70.3 °F 45.7 °F 41% 30.03 in 10.0 mi Calm Calm - N/A   Clear
3:55 AM 70.5 °F 45.5 °F 41% 30.03 in 10.0 mi Calm Calm - N/A   Clear
4:15 AM 70.5 °F 45.3 °F 40% 30.03 in 10.0 mi NE 3.5 mph - N/A   Clear
4:35 AM 70.5 °F 45.9 °F 41% 30.04 in 10.0 mi NE 3.5 mph - N/A   Clear
4:55 AM 69.8 °F 44.8 °F 41% 30.04 in 10.0 mi East 4.6 mph - N/A   Clear
5:15 AM 69.4 °F 45.1 °F 42% 30.04 in 10.0 mi ESE 5.8 mph - N/A   Clear
5:35 AM 70.2 °F 45.3 °F 41% 30.05 in 7.0 mi SSE 3.5 mph - N/A   Clear
5:55 AM 68.7 °F 45.7 °F 44% 30.05 in 7.0 mi Calm Calm - N/A   Clear
6:15 AM 68.5 °F 46.4 °F 45% 30.05 in 7.0 mi Calm Calm - N/A   Mostly Cloudy
6:35 AM 69.4 °F 46.9 °F 45% 30.05 in 7.0 mi Calm Calm - N/A   Overcast
6:55 AM 69.6 °F 48.4 °F 47% 30.05 in 5.0 mi Calm Calm - N/A   Overcast
7:15 AM 70.3 °F 48.2 °F 45% 30.06 in 7.0 mi South 4.6 mph - N/A   Mostly Cloudy
7:35 AM 71.6 °F 46.8 °F 41% 30.07 in 10.0 mi Calm Calm - N/A   Scattered Clouds
7:55 AM 72.3 °F 47.3 °F 41% 30.08 in 10.0 mi Calm Calm - N/A   Mostly Cloudy
8:15 AM 73.2 °F 48.2 °F 41% 30.08 in 7.0 mi Calm Calm - N/A   Overcast
8:35 AM 72.0 °F 52.2 °F 50% 30.08 in 5.0 mi North 3.5 mph - N/A   Overcast
10:35 AM 83.5 °F 48.7 °F 30% 30.03 in 10.0 mi ENE 10.4 mph - N/A   Clear
10:55 AM 84.2 °F 49.1 °F 29% 30.03 in 10.0 mi ENE 10.4 mph - N/A   Clear
11:15 AM 83.7 °F 49.3 °F 30% 30.03 in 7.0 mi ENE 8.1 mph - N/A   Clear
11:35 AM 84.7 °F 49.3 °F 29% 30.02 in 10.0 mi SE 3.5 mph - N/A   Clear
11:55 AM 85.5 °F 48.9 °F 28% 30.01 in 10.0 mi East 4.6 mph - N/A   Clear
12:15 PM 86.0 °F 49.3 °F 28% 30.00 in 7.0 mi East 9.2 mph - N/A   Clear
12:35 PM 86.4 °F 48.4 °F 27% 30.00 in 10.0 mi North 3.5 mph - N/A   Scattered Clouds
1:15 PM 86.9 °F 48.4 °F 26% 29.98 in 7.0 mi East 9.2 mph - N/A   Mostly Cloudy
1:35 PM 87.6 °F 47.7 °F 25% 29.96 in 7.0 mi SE 3.5 mph - N/A   Scattered Clouds
1:55 PM 88.3 °F 47.1 °F 24% 29.96 in 10.0 mi NE 9.2 mph - N/A   Clear
2:15 PM 90.5 °F 47.1 °F 22% 29.95 in 10.0 mi ENE 9.2 mph - N/A   Clear
2:35 PM 88.2 °F 47.5 °F 24% 29.94 in 10.0 mi East 9.2 mph - N/A   Scattered Clouds
2:55 PM 86.9 °F 48.9 °F 27% 29.93 in 10.0 mi East 10.4 mph - N/A   Mostly Cloudy
3:15 PM 85.6 °F 48.0 °F 27% 29.93 in 10.0 mi Calm Calm - N/A   Scattered Clouds
3:35 PM 85.8 °F 47.1 °F 26% 29.95 in 7.0 mi SSW 33.4 mph 41.4 mph N/A   Mostly Cloudy
3:55 PM 80.4 °F 47.1 °F 31% 29.96 in 7.0 mi SSW 34.5 mph 42.6 mph N/A   Scattered Clouds
4:15 PM 73.4 °F 52.2 °F 47% 29.96 in 7.0 mi South 26.5 mph 43.7 mph N/A   Mostly Cloudy
4:55 PM 78.1 °F 48.9 °F 36% 29.98 in 10.0 mi SSW 17.3 mph 28.8 mph N/A   Scattered Clouds
5:15 PM 79.0 °F 48.6 °F 34% 29.97 in 7.0 mi South 20.7 mph 25.3 mph N/A   Clear
5:35 PM 79.5 °F 47.3 °F 32% 29.96 in 10.0 mi SSE 13.8 mph 23.0 mph N/A   Clear
5:55 PM 81.0 °F 47.8 °F 31% 29.95 in 10.0 mi South 11.5 mph - N/A   Clear
6:15 PM 81.5 °F 47.5 °F 30% 29.96 in 10.0 mi South 6.9 mph - N/A   Clear
6:35 PM 81.1 °F 47.8 °F 31% 29.98 in 10.0 mi West 10.4 mph 17.3 mph N/A   Clear
6:55 PM 77.4 °F 52.2 °F 41% 29.98 in 10.0 mi West 8.1 mph - N/A   Clear
7:15 PM 75.2 °F 52.3 °F 45% 29.99 in 10.0 mi West 11.5 mph 16.1 mph N/A   Clear
7:35 PM 73.8 °F 52.5 °F 47% 29.99 in 10.0 mi Calm Calm - N/A   Clear
7:55 PM 71.1 °F 52.7 °F 52% 29.99 in 10.0 mi WNW 5.8 mph - N/A   Clear
8:15 PM 70.3 °F 52.0 °F 52% 29.99 in 10.0 mi Calm Calm - N/A   Clear
8:35 PM 70.3 °F 51.8 °F 52% 29.99 in 10.0 mi Calm Calm - N/A   Clear
8:55 PM 71.1 °F 51.3 °F 49% 30.00 in 10.0 mi South 3.5 mph - N/A   Clear
9:15 PM 70.3 °F 51.4 °F 51% 30.00 in 10.0 mi SSE 5.8 mph - N/A   Clear
9:35 PM 69.8 °F 51.1 °F 51% 30.00 in 10.0 mi Calm Calm - N/A   Clear
9:55 PM 68.9 °F 50.9 °F 53% 30.01 in 10.0 mi South 5.8 mph - N/A   Clear
10:15 PM 69.6 °F 51.1 °F 52% 30.01 in 10.0 mi ESE 3.5 mph - N/A   Clear
10:35 PM 69.1 °F 50.9 °F 52% 30.01 in 10.0 mi Calm Calm - N/A   Clear
10:55 PM 68.2 °F 51.4 °F 55% 30.01 in 10.0 mi SE 6.9 mph - N/A   Clear
11:15 PM 66.9 °F 51.8 °F 58% 30.02 in 10.0 mi East 4.6 mph - N/A   Clear
11:35 PM 63.3 °F 51.3 °F 65% 30.02 in 10.0 mi Calm Calm - N/A   Clear
11:55 PM 62.8 °F 52.0 °F 68% 30.03 in 10.0 mi NE 3.5 mph - N/A   Clear